Regional Weather Roundup
Issued by NWS State College, PA

Home | Current Version | Previous Version | Text Only | Print | Product List | Glossary On
Versions: 1 2 3 4 5 6 7 8 9 10 11 12 13 14 15 16 17 18 19 20 21 22 23 24 25 26 27 28 29 30 31 32 33 34 35 36 37 38 39 40 41 42 43 44 45 46 47 48 49 50
000
ASUS41 KCTP 300710
RWRCTP

REGIONAL WEATHER ROUNDUP
NATIONAL WEATHER SERVICE STATE COLLEGE PA
300 AM EDT SUN AUG 30 2015

Note: "fair" indicates few or no clouds below 12,000 feet with no
significant weather and/or obstructions to visibility.

* = STATION THAT DOES NOT REPORT PRECIPITATION /E.G. RAIN...SNOW...ETC/
    THUNDER OR FOG.

PAZ002>004-007>009-013>016-020>023-029>032-300800-
WESTERN PENNSYLVANIA

CITY           SKY/WX    TMP DP  RH WIND       PRES   REMARKS
ERIE           LGT RAIN  68  64  87 SE3       30.06F
MEADVILLE      CLOUDY    69  62  78 CALM      30.09F
FRANKLIN*      CLOUDY    64  63  94 CALM      30.11F
NEW CASTLE     FOG       66  66 100 CALM      30.09S VSB 1
BEAVER COUNTY  NOT AVBL
BUTLER*        PTCLDY    66  63  88 CALM      30.10F
PITTSBURGH INT MOCLDY    71  62  73 S5        30.09S
PITTSBURGH     PTCLDY    68  59  73 S7        30.09F
INDIANA*       PTCLDY    64  61  88 CALM      30.14S
LATROBE        NOT AVBL
WASHINGTON CO* PTCLDY    61  59  94 CALM      30.10F
$$

PAZ004>006-010>012-017>019-024>028-033>037-041-042-045-046-049>053-300800-
CENTRAL PENNSYLVANIA

CITY           SKY/WX    TMP DP  RH WIND       PRES   REMARKS
BRADFORD       LGT RAIN  60  58  92 CALM      30.14S
DUBOIS         CLOUDY    68  59  73 CALM      30.11F
CLEARFIELD     PTCLDY    60  56  86 CALM      30.12S
JOHNSTOWN      CLEAR     66  56  70 SW8       30.15F
ALTOONA        CLEAR     60  56  86 W3        30.12F
STATE COLLEGE  PTCLDY    62  59  88 W3        30.10F
WILLIAMSPORT   PTCLDY    61  58  90 CALM      30.08F
SELINSGROVE    CLEAR     59  57  93 CALM      30.09F FOG
FT INDIANTOWN  CLEAR     62  62  98 CALM      30.09F FOG
CAPITAL CITY   CLEAR     66  63  90 CALM      30.09S
HARRISBURG     PTCLDY    69  64  84 SE3       30.08F
YORK           CLEAR     64  61  90 CALM      30.09F
$$

PAZ038>040-043-044-047-048-054-055-060>062-067>071-300800-
EASTERN PENNSYLVANIA

CITY           SKY/WX    TMP DP  RH WIND       PRES   REMARKS
SCRANTON       PTCLDY    63  58  83 E6        30.10F
MOUNT POCONO   CLEAR     59  57  93 NW5       30.14F FOG
ALLENTOWN      CLEAR     63  60  90 CALM      30.09F FOG
QUAKERTOWN*    SUNNY     63  61  94 CALM      30.11F
READING        CLEAR     68  63  84 CALM      30.08F
LANCASTER      CLEAR     65  63  93 CALM      30.10F
COATESVILLE    SUNNY     64  64 100 CALM      30.12S
POTTSTOWN      CLEAR     64  63  96 CALM      30.12S
BLUE BELL      CLEAR     70  64  83 CALM      30.10S
DOYLESTOWN     CLEAR     65  62  90 CALM      30.10F
WILLOW GROVE   NOT AVBL
NORTH PHILA    CLEAR     73  60  63 CALM      30.11F
PHILADELPHIA   MOCLDY    72  62  71 SW7       30.11F
$$


USA.gov is the U.S. government's official web portal to all federal, state and local government web resources and services.